XW-2B
1 40911U 15049N 19325.85909103 .00000789 00000-0 44531-4 0 9994
2 40911 97.4724 325.7627 0014751 21.9503 62.8347 15.15962389230565
DCBB
1 40912U 15049P 19325.81670753 .00000991 00000-0 49289-4 0 9997
2 40912 97.4504 331.1762 0014788 354.0450 82.9470 15.19888589231029
TW-1C
1 40926U 15051B 19325.74533771 .00011933 00000-0 15425-3 0 9997
2 40926 97.1163 11.8609 0008532 140.8641 314.6080 15.59045154234445
TW-1A
1 40928U 15051D 19325.78437376 .00002131 00000-0 52652-4 0 9991
2 40928 97.1314 353.5837 0009554 220.4184 256.2394 15.41547424233217
IO-86
1 40931U 15052B 19324.69785557 -.00020420 00000-0 -29507-2 0 9996
2 40931 5.9963 31.2247 0013118 192.9224 166.9491 14.76583141224210
LQSat
1 40958U 15057A 19325.24962188 .00000003 00000-0 80710-5 0 9998
2 40958 97.8823 30.1044 0019570 101.5712 258.7694 14.73096983221709
AO-85
1 40967U 15058D 19324.48101002 .00000217 00000 0 43005-4 0 8714
2 40967 64.7766 48.3466 0181490 151.5233 209.5936 14.76030790130586
ATHENOXAT-1
1 41168U 15077C 19325.74097397 .00001969 00000-0 68430-4 0 9996
2 41168 14.9872 152.2311 0011289 104.3736 255.7839 15.13928299217663
ChubuSat-2
1 41338U 16012B 19325.85340618 .00000302 00000-0 16680-4 0 9994
2 41338 31.0027 232.3061 0013922 210.6289 149.3534 15.00211061206381
ChubuSat-3
1 41339U 16012C 19325.80482664 .00000268 00000-0 13996-4 0 9996
2 41339 31.0118 230.5093 0013820 218.2204 141.7452 15.00382011206374
Horyu-4
1 41340U 16012D 19325.81519705 .00000439 00000-0 26507-4 0 9998
2 41340 31.0043 220.3268 0014154 238.3765 121.5490 15.01361943206493
OUFTI-1
1 41458U 16025C 19325.73020517 .00002283 00000-0 11857-3 0 9991
2 41458 98.1010 60.5205 0165247 191.7981 167.9354 15.06216633196051
e-st@r-II
1 41459U 16025D 19325.85140239 .00001386 00000-0 74261-4 0 9991
2 41459 98.1003 60.2144 0166786 192.9440 166.7465 15.05824288196044
AAUSAT4
1 41460U 16025E 19325.69228058 .00002617 00000-0 13296-3 0 9999
2 41460 98.0963 61.7035 0156343 184.7680 175.2093 15.07861718196175
LO-87
1 41557U 16033B 19325.77286466 .00001270 00000-0 49754-4 0 9994
2 41557 97.4135 52.3522 0015333 105.0507 255.2430 15.27544606193919
NuSat2
1 41558U 16033C 19325.80865551 .00001424 00000-0 52375-4 0 9991
2 41558 97.4171 53.9487 0014369 104.2212 256.0626 15.29471215193990
Lapan A3
1 41603U 16040E 19325.89386079 .00000088 00000-0 72194-5 0 9999
2 41603 97.3409 20.5795 0012527 206.3461 261.8949 15.19766885189468
Swayam
1 41607U 16040J 19325.13587760 .00001563 00000-0 68002-4 0 9991
2 41607 97.3477 24.1574 0012794 197.6522 162.4272 15.23668737189544
Pratham
1 41783U 16059A 19325.19385401 .00000054 00000-0 19683-4 0 9995
2 41783 98.0485 21.1832 0032317 254.2449 105.5188 14.63021585168280
AlSat 1N
1 41789U 16059G 19325.66465892 .00000071 00000-0 22529-4 0 9998
2 41789 98.0513 23.9837 0027222 241.2080 118.6395 14.64277309168473
ScatSat
1 41790U 16059H 19325.64643558 .00000021 00000-0 16160-4 0 9994
2 41790 98.1906 6.8204 0004880 191.4259 168.6826 14.50894877166943
TY-1
1 41844U 16066D 19325.86456164 .00000799 00000-0 35346-4 0 9990
2 41844 97.4057 331.4147 0015388 5.1515 91.5739 15.24504123168488
Pegasus-1
1 41846U 16066F 19324.60055120 .00000230 00000-0 44422-4 0 9995
2 41846 098.6932 007.1321 0368176 137.6967 225.3251 14.37651891158814
CAS-2T
1 41847U 16066G 19325.12323049 .00000066 00000-0 19696-4 0 9994
2 41847 98.6868 8.1812 0366719 132.3258 230.9622 14.38021022159335
EO-88
1 42017U 17008BX 19325.66137754 .00001583 00000-0 64537-4 0 9995
2 42017 97.3869 31.0331 0005793 355.3153 4.8030 15.25911032153708
nSIGHT1
1 42726U 98067MF 19325.20981055 .00040516 00000-0 22174-3 0 9996
2 42726 51.6323 229.4509 0005032 87.7192 272.4385 15.79399628142320
CAS-4B
1 42759U 17034B 19325.76486884 .00000170 00000-0 23867-4 0 9991
2 42759 43.0192 93.5283 0010451 159.1715 353.3493 15.09685095134420
CAS-4A
1 42761U 17034D 19325.78592766 .00000077 00000-0 18155-4 0 9993
2 42761 43.0185 92.8485 0010690 160.0393 351.2843 15.09762168134422
UCLSat
1 42765U 17036A 19325.19840882 .00001255 00000-0 56148-4 0 9992
2 42765 97.3322 19.7403 0012600 49.0910 311.1416 15.23049068134135
NIUSat
1 42766U 17036B 19325.20381806 .00000947 00000-0 45199-4 0 9992
2 42766 97.3316 17.7756 0016570 40.1546 320.0911 15.21351816133879
LituanicaSAT 2
1 42768U 17036D 19325.22892728 .00002005 00000-0 87239-4 0 9994
2 42768 97.3364 19.4821 0015789 38.7410 321.4956 15.23294204133985
Aalto 1
1 42775U 17036L 19325.60329642 .00000797 00000-0 38309-4 0 9994
2 42775 97.3301 18.5105 0014886 39.0758 321.1550 15.21539427133912
URSA MAIOR
1 42776U 17036M 19325.22090731 .00000829 00000-0 39594-4 0 9990
2 42776 97.3313 18.3392 0014732 40.2605 319.9720 15.21689833133862
Max Valier Sat
1 42778U 17036P 19325.26674804 .00000947 00000-0 44075-4 0 9996
2 42778 97.3358 19.3579 0013332 44.3412 315.8889 15.22258519133907
Pegasus
1 42784U 17036V 19325.24905371 .00001121 00000-0 50863-4 0 9994
2 42784 97.3326 19.5581 0013171 49.3045 310.9334 15.22777462133939
NUDATSat
1 42787U 17036Y 19325.40548497 .00001500 00000-0 64926-4 0 9993
2 42787 97.3359 20.6670 0013108 42.7955 317.4300 15.23878979133859
SUCHAI 1
1 42788U 17036Z 19325.21159151 .00001335 00000-0 59206-4 0 9999
2 42788 97.3332 19.9321 0012699 48.6780 311.5548 15.23244270134020
SKCUBE
1 42789U 17036AA 19324.84431543 .00001256 00000-0 56052-4 0 9994
2 42789 097.3328 019.4830 0012610 050.0337 310.2005 15.23121437133880
VZLUSAT 1
1 42790U 17036AB 19324.86759869 .00001709 00000-0 73615-4 0 9999
2 42790 097.3347 020.1370 0012099 048.9324 311.2956 15.23868022133923
VENTA 1
1 42791U 17036AC 19324.88315838 .00001253 00000-0 55936-4 0 9996
2 42791 097.3326 019.5709 0012269 050.5163 309.7157 15.23125638133887
Robusta 1B
1 42792U 17036AD 19325.21744566 .00001260 00000-0 55959-4 0 9992
2 42792 97.3329 20.0364 0012158 49.6350 310.5946 15.23300950133966
D-SAT
1 42794U 17036AF 19325.08843847 .00000175 00000-0 20724-4 0 9997
2 42794 97.5211 2.7992 0125914 344.2924 15.4403 14.91171348131496
TechnoSat
1 42829U 17042E 19325.77885394 .00000230 00000-0 28573-4 0 9994
2 42829 97.5437 211.9875 0012736 259.6840 100.2943 14.91025115128197
QIKCOM-1
1 42983U 98067NF 19325.50403679 .00003978 00000-0 54752-4 0 9994
2 42983 51.6390 277.4635 0003964 2.9677 357.1338 15.59881423117655
AO-91
1 43017U 17073E 19325.71800394 .00000971 00000-0 80751-4 0 9997
2 43017 97.7235 240.9715 0258126 10.6277 350.0245 14.78704790108314
EcAMSat
1 43019U 98067NG 19325.39343219 .00006858 00000-0 79663-4 0 9993
2 43019 51.6402 270.0330 0003913 347.7696 12.3203 15.63053911200063
PICSAT
1 43132U 18004X 19325.67248994 .00001372 00000-0 59705-4 0 9998
2 43132 97.4728 33.0719 0011184 71.1070 289.1379 15.23907137103254
AO-92
1 43137U 18004AC 19325.67837310 .00001050 00000-0 46652-4 0 9999
2 43137 97.4718 33.0087 0010812 72.9046 287.3374 15.23724571103248
TianYi 2
1 43155U 18008A 19325.88191834 .00001022 00000-0 64186-4 0 9991
2 43155 97.4727 35.0315 0018521 143.1533 341.5766 15.11341632101416
Zhou Enlai
1 43156U 18008B 19325.90169323 .00000356 00000-0 25154-4 0 9994
2 43156 97.4766 34.9226 0015851 140.4256 279.9950 15.10852255101386
TianYi 6
1 43158U 18008D 19325.67567583 .00001021 00000-0 65771-4 0 9999
2 43158 97.4732 34.0146 0015238 140.8921 11.8019 15.10425458101307
S-Net G
1 43186U 18014G 19324.86597416 -.00000133 00000-0 -65406-5 0 9996
2 43186 097.7009 230.9765 0010429 200.6118 159.4684 14.96708878098341
S-Net H
1 43187U 18014H 19325.33377474 -.00000077 00000-0 -16512-5 0 9991
2 43187 97.7007 231.4213 0010461 198.8666 161.2169 14.96708975 98411
